When you browse on this site, cookies collect data to enhance your experience and personalize the content and advertising you see.
Visit our Privacy Policy to learn more. By continuing to use the site, you agree to this use of cookies and data.
  • In Lithuania
  • List of Countries
  • For 7 days
  • Water Temperature
  • Weather Map
  • Weather Widgets
  • user-avatar
    Login

    Hourly Weather Mingachevir

    Today, 30 May, Saturday

    Time Temperature Precipitation Wind Pressure Humidity
    00:00 +25°C° 0.1 mm 3 mps 747 mmHg 60%
    01:00 +24°C° 0 mm 3 mps 747 mmHg 63%
    02:00 +23°C° 0 mm 4 mps 747 mmHg 67%
    03:00 +23°C° 0 mm 4 mps 746 mmHg 68%
    04:00 +23°C° 0 mm 5 mps 747 mmHg 65%
    05:00 +24°C° 0 mm 6 mps 747 mmHg 61%
    06:00 +24°C° 0 mm 8 mps 748 mmHg 58%
    07:00 +26°C° 0 mm 8 mps 748 mmHg 53%
    08:00 +28°C° 0 mm 8 mps 748 mmHg 48%
    09:00 +31°C° 0 mm 8 mps 748 mmHg 43%
    10:00 +32°C° 0 mm 7 mps 748 mmHg 40%
    11:00 +33°C° 0 mm 6 mps 748 mmHg 37%
    12:00 +35°C° 0 mm 5 mps 748 mmHg 34%
    13:00 +35°C° 0 mm 4 mps 748 mmHg 32%
    14:00 +36°C° 0 mm 3 mps 748 mmHg 31%
    15:00 +36°C° 0 mm 2 mps 748 mmHg 30%
    16:00 +36°C° 0 mm 4 mps 748 mmHg 34%
    17:00 +35°C° 0 mm 6 mps 748 mmHg 38%
    18:00 +34°C° 0 mm 8 mps 748 mmHg 42%
    19:00 +30°C° 0 mm 7 mps 749 mmHg 47%
    20:00 +28°C° 0 mm 7 mps 749 mmHg 52%
    21:00 +26°C° 0 mm 7 mps 750 mmHg 56%
    22:00 +24°C° 0 mm 6 mps 750 mmHg 57%
    23:00 +23°C° 0 mm 6 mps 750 mmHg 58%

    Tomorrow, 31 May, Sunday

    Time Temperature Precipitation Wind Pressure Humidity
    00:00 +23°C° 0 mm 5 mps 750 mmHg 59%
    01:00 +22°C° 0 mm 4 mps 751 mmHg 61%
    02:00 +21°C° 0 mm 3 mps 751 mmHg 64%
    03:00 +20°C° 0 mm 2 mps 751 mmHg 66%
    04:00 +22°C° 0 mm 1 mps 751 mmHg 66%
    05:00 +22°C° 0 mm 1 mps 752 mmHg 65%
    06:00 +22°C° 0 mm 1 mps 752 mmHg 64%
    07:00 +24°C° 0 mm 2 mps 752 mmHg 60%
    08:00 +25°C° 0 mm 2 mps 752 mmHg 55%
    09:00 +27°C° 0 mm 3 mps 752 mmHg 50%
    10:00 +28°C° 0 mm 3 mps 752 mmHg 46%
    11:00 +29°C° 0 mm 3 mps 751 mmHg 43%
    12:00 +30°C° 0 mm 2 mps 751 mmHg 39%
    13:00 +31°C° 0 mm 2 mps 751 mmHg 38%
    14:00 +32°C° 0 mm 2 mps 750 mmHg 37%
    15:00 +32°C° 0 mm 2 mps 750 mmHg 36%
    16:00 +32°C° 0 mm 2 mps 750 mmHg 37%
    17:00 +31°C° 0 mm 2 mps 750 mmHg 39%
    18:00 +31°C° 0 mm 2 mps 750 mmHg 40%
    19:00 +29°C° 0 mm 3 mps 751 mmHg 45%
    20:00 +27°C° 0 mm 4 mps 751 mmHg 49%
    21:00 +25°C° 0 mm 5 mps 751 mmHg 54%
    22:00 +23°C° 0 mm 5 mps 751 mmHg 56%
    23:00 +22°C° 0 mm 4 mps 751 mmHg 57%

    Day after tomorrow, 1 June, Monday

    Time Temperature Precipitation Wind Pressure Humidity
    00:00 +21°C° 0 mm 4 mps 751 mmHg 59%
    01:00 +21°C° 0 mm 4 mps 751 mmHg 61%
    02:00 +20°C° 0 mm 3 mps 751 mmHg 63%
    03:00 +20°C° 0 mm 2 mps 751 mmHg 65%
    04:00 +20°C° 0 mm 2 mps 751 mmHg 64%
    05:00 +20°C° 0 mm 3 mps 751 mmHg 62%
    06:00 +21°C° 0 mm 3 mps 751 mmHg 60%
    07:00 +24°C° 0 mm 3 mps 751 mmHg 55%
    08:00 +25°C° 0 mm 3 mps 750 mmHg 49%
    09:00 +27°C° 0 mm 4 mps 750 mmHg 44%
    10:00 +28°C° 0 mm 4 mps 750 mmHg 41%
    11:00 +30°C° 0 mm 3 mps 750 mmHg 38%
    12:00 +31°C° 0 mm 3 mps 749 mmHg 35%
    13:00 +33°C° 0 mm 3 mps 749 mmHg 34%
    14:00 +33°C° 0 mm 3 mps 748 mmHg 33%
    15:00 +34°C° 0 mm 2 mps 748 mmHg 31%
    16:00 +34°C° 0 mm 2 mps 748 mmHg 33%
    17:00 +32°C° 0 mm 2 mps 748 mmHg 34%
    18:00 +32°C° 0 mm 1 mps 747 mmHg 35%
    19:00 +30°C° 0 mm 2 mps 748 mmHg 40%
    20:00 +28°C° 0 mm 2 mps 748 mmHg 46%
    21:00 +26°C° 0 mm 3 mps 748 mmHg 51%
    22:00 +25°C° 0 mm 3 mps 748 mmHg 54%
    23:00 +24°C° 0 mm 2 mps 748 mmHg 57%

    2 June, Tuesday

    Time Temperature Precipitation Wind Pressure Humidity
    00:00 +23°C° 0 mm 2 mps 748 mmHg 60%
    01:00 +21°C° 0 mm 2 mps 748 mmHg 61%
    02:00 +22°C° 0 mm 1 mps 747 mmHg 62%
    03:00 +21°C° 0 mm 1 mps 747 mmHg 64%
    04:00 +22°C° 0 mm 1 mps 747 mmHg 62%
    05:00 +21°C° 0 mm 0 mps 747 mmHg 59%
    06:00 +21°C° 0 mm 0 mps 747 mmHg 57%
    07:00 +25°C° 0 mm 1 mps 747 mmHg 52%
    08:00 +27°C° 0 mm 1 mps 747 mmHg 47%
    09:00 +29°C° 0 mm 1 mps 747 mmHg 42%
    10:00 +31°C° 0 mm 1 mps 747 mmHg 39%
    11:00 +33°C° 0 mm 1 mps 746 mmHg 35%
    12:00 +34°C° 0 mm 1 mps 746 mmHg 32%
    13:00 +35°C° 0 mm 1 mps 746 mmHg 29%
    14:00 +36°C° 0 mm 1 mps 745 mmHg 27%
    15:00 +38°C° 0 mm 2 mps 745 mmHg 25%
    16:00 +36°C° 0.1 mm 4 mps 745 mmHg 30%
    17:00 +34°C° 0.1 mm 6 mps 745 mmHg 34%
    18:00 +32°C° 0.1 mm 7 mps 745 mmHg 39%
    19:00 +30°C° 0.1 mm 6 mps 746 mmHg 43%
    20:00 +29°C° 0.1 mm 4 mps 746 mmHg 46%
    21:00 +28°C° 0.1 mm 2 mps 747 mmHg 49%
    22:00 +27°C° 0 mm 1 mps 746 mmHg 52%
    23:00 +26°C° 0 mm 1 mps 746 mmHg 54%

    3 June, Wednesday

    Time Temperature Precipitation Wind Pressure Humidity
    00:00 +25°C° 0 mm 1 mps 746 mmHg 57%
    01:00 +25°C° 0 mm 1 mps 746 mmHg 59%
    02:00 +24°C° 0 mm 2 mps 746 mmHg 61%
    03:00 +24°C° 0 mm 2 mps 746 mmHg 63%
    04:00 +24°C° 0 mm 2 mps 746 mmHg 60%
    05:00 +25°C° 0 mm 3 mps 746 mmHg 57%
    06:00 +26°C° 0 mm 3 mps 746 mmHg 54%
    07:00 +27°C° 0 mm 2 mps 746 mmHg 50%
    08:00 +29°C° 0 mm 2 mps 746 mmHg 46%
    09:00 +30°C° 0 mm 2 mps 746 mmHg 41%
    10:00 +32°C° 0 mm 2 mps 746 mmHg 38%
    11:00 +34°C° 0 mm 2 mps 746 mmHg 36%
    12:00 +35°C° 0 mm 2 mps 746 mmHg 33%
    13:00 +36°C° 0 mm 2 mps 745 mmHg 31%
    14:00 +37°C° 0 mm 2 mps 745 mmHg 29%
    15:00 +38°C° 0 mm 2 mps 745 mmHg 26%
    16:00 +38°C° 0 mm 3 mps 745 mmHg 27%
    17:00 +37°C° 0 mm 3 mps 745 mmHg 27%
    18:00 +37°C° 0 mm 4 mps 746 mmHg 28%
    19:00 +35°C° 0 mm 5 mps 746 mmHg 30%
    20:00 +34°C° 0 mm 6 mps 747 mmHg 32%
    21:00 +33°C° 0 mm 7 mps 747 mmHg 34%
    22:00 +30°C° 0 mm 6 mps 747 mmHg 36%
    23:00 +29°C° 0 mm 5 mps 747 mmHg 37%

    4 June, Thursday

    Time Temperature Precipitation Wind Pressure Humidity
    00:00 +28°C° 0 mm 3 mps 747 mmHg 39%
    01:00 +27°C° 0 mm 3 mps 747 mmHg 44%
    02:00 +26°C° 0 mm 2 mps 747 mmHg 48%
    03:00 +25°C° 0 mm 1 mps 746 mmHg 53%
    04:00 +25°C° 0 mm 1 mps 746 mmHg 52%
    05:00 +26°C° 0 mm 2 mps 746 mmHg 51%
    06:00 +26°C° 0 mm 3 mps 746 mmHg 50%
    07:00 +28°C° 0 mm 3 mps 746 mmHg 45%
    08:00 +30°C° 0 mm 3 mps 746 mmHg 40%
    09:00 +33°C° 0 mm 4 mps 745 mmHg 34%
    10:00 +34°C° 0 mm 4 mps 745 mmHg 32%
    11:00 +36°C° 0 mm 3 mps 745 mmHg 30%
    12:00 +37°C° 0 mm 3 mps 745 mmHg 28%
    13:00 +37°C° 0 mm 4 mps 745 mmHg 27%
    14:00 +38°C° 0 mm 4 mps 745 mmHg 27%
    15:00 +40°C° 0 mm 4 mps 745 mmHg 26%
    16:00 +38°C° 0.2 mm 4 mps 745 mmHg 28%
    17:00 +37°C° 0.2 mm 4 mps 746 mmHg 30%
    18:00 +36°C° 0.2 mm 4 mps 746 mmHg 32%
    19:00 +33°C° 0.3 mm 4 mps 747 mmHg 41%
    20:00 +29°C° 0.3 mm 5 mps 748 mmHg 50%
    21:00 +26°C° 0.3 mm 6 mps 748 mmHg 59%
    22:00 +26°C° 0 mm 5 mps 749 mmHg 61%
    23:00 +25°C° 0 mm 5 mps 749 mmHg 63%
    Show more